Location: Boiro
(42.6475°N, 8.8834°W)
Time: 18:11:29
(UTC+01:00)

Tiros 1 despin weight - Pass Details

Date: 05 December 2021
Orbit: 592 x 641 km, 48.2° (Epoch: 20 January)

Event Time Altitude Azimuth Distance (km) Brightness Sun altitude
Rises 16:35:27 0° 278° (W) 2,830 ? 11.7°
Reaches altitude 10° 16:37:51 10° 286° (WNW) 1,925 ? 11.4°
Maximum altitude 16:42:01 40° 357° (N) 883 ? 10.8°
Drops below altitude 10° 16:46:10 10° 67° (ENE) 1,923 ? 10.3°
Sets 16:48:34 0° 75° (ENE) 2,827 ? 10.0°
